{"data":{"norad_id":67423,"intl_designator":"2026-005V","name":"STARLINK-36465","alt_names":[],"object_type":"PAYLOAD","status":"ACTIVE","operator":null,"country":"US","launch_date":"2026-01-12","launch_site_code":"AFETR","launch_vehicle":null,"mission":null,"orbit_class":"UNKNOWN","rcs_meters":null,"size_class":null,"mass_kg":null,"dimensions":null,"purposes":["comms"],"wikipedia_slug":null,"has_3d_model":false,"image_url":null,"decayed_at":null,"tle_current":{"epoch":"2026-05-25T01:25:01.223616Z","epoch_age_seconds":60135,"freshness":"FRESH","line1":"1 67423U 26005V   26145.05904194  .00014830  00000+0  54795-3 0  9993","line2":"2 67423  43.0025 166.9115 0002230 258.1873 101.8728 15.27544075 20377","mean_motion":15.27544075,"eccentricity":0.000223,"inclination_deg":43.0025,"raan_deg":166.9115,"arg_perigee_deg":258.1873,"mean_anomaly_deg":101.8728,"bstar":0.00054795,"rev_number":2037,"period_min":94.268965692528,"perigee_km":481.62660203332,"apogee_km":484.68673901038,"semimajor_km":6861.2936705218,"source":"CELESTRAK","updated_at":"2026-05-25T13:38:21.556565Z"}}}